Погода в Шпикове

Украина / Винницкая область     48°47′23″N   28°33′59″E
темп.,
°C
ветер,
м/с
пор.,
м/с
влажн.,
%
обл.,
%
осадки,
мм/ч
давл.,
гПа
погр.,
м
18 мая, вт
вт1800:00+12юв359391 0.3 100382
03:00+13ююв359299 0.5 1002101
06:00+11юв349459 0.0 100173
09:00+16ююв3681100 0.5 1000377
12:00+18ююв4569100 3.9 999674
15:00+18юв4470100 6.4 9981004
18:00+14ююз3690100 2.7 998195
21:00+13сз2388100 4.3 99751
19 мая, ср
ср1900:00+12зсз51096100 1.6 998299
03:00+13сз71197100 6.3 999539
06:00+12сз91596100 7.9 999888
09:00+10сз91694100 19.5 1003785
12:00+14сз81282100 2.5 10051316
15:00+16сз9117465 3.6 10071387
18:00+15сз7979100 0.7 10081022
21:00+11сз5118498 0.8 1010452
20 мая, чт
чт2000:00+9сз36955 0.0 1010117
03:00+8сз35936 0.0 1010111
06:00+8ссз239599 0.0 101141
09:00+13ссв3481100 0.0 1010423
12:00+16вюв3470100 0.6 10101050
15:00+13ююв5685100 2.3 1010637
18:00+13юв5685100 0.1 1010611
21:00+10в4897100 1.2 1011315
21 мая, пт
пт2100:00+10в4998100 2.8 1011379
03:00+10всв4898100 10.0 1011323
06:00+10всв4798100 3.8 1012329
09:00+10св3698100 5.6 1013329
12:00+11св3697100 3.9 1014336
15:00+11в3696100 5.8 1014280
18:00+13св478859 0.3 1015643
21:00+10св3896100 0.4 1016221
22 мая, сб
сб2200:00+8ссв389723 0.0 1016173
03:00+8с389815 0.0 1016160
06:00+7с48977 0.0 1016172
09:00+13ссв56840 0.0 1015483
12:00+17ссв446851 0.0 10141185
15:00+18ссв3368100 0.1 10141130
18:00+17св24780 0.0 1013324
21:00+13всв22880 0.1 101319